Skip Page Navigation
NASA JPL Caltech
NASA Logo - Jet Propulsion Laboratory + View the NASA Portal
+ Center for Near-Earth Object Studies
JPL Home Earth Solar System Stars & Galaxies Technology
JPL Solar System Dynamics
BODIES ORBITS EPHEMERIDES TOOLS PHYSICAL DATA DISCOVERY FAQ SITE MAP
JPL Small-Body Database Browser
Search: [ help ]  
324275 (2006 CH10)
Classification: Main-belt Asteroid          SPK-ID: 2324275
Ephemeris | Orbit Diagram | Orbital Elements | Mission Design | Physical Parameters | Discovery Circumstances | Close-Approach Data ]

[ show orbit diagram ]
Orbital Elements at Epoch 2459000.5 (2020-May-31.0) TDB
Reference: JPL 17 (heliocentric ecliptic J2000)
 Element Value Uncertainty (1-sigma)   Units 
e .08103493645774383 4.3812e-08  
a 3.004986050100723 3.383e-08 au
q 2.761477196474404 1.2229e-07 au
i 8.79713886387569 6.2995e-06 deg
node 181.3587837459576 3.1867e-05 deg
peri 120.0511058411607 5.3719e-05 deg
M 118.4573083561645 4.6256e-05 deg
tp 2458374.432042923811
(2018-Sep-12.93204292)
0.00024057 TDB
period 1902.664070922214
5.21
3.213e-05
8.797e-08
d
yr
n .1892083870725059 3.1951e-09 deg/d
Q 3.248494903727042 3.6571e-08 au
  Orbit Determination Parameters
   # obs. used (total)      280  
   data-arc span      6385 days (17.48 yr)  
   first obs. used      2002-06-01  
   last obs. used      2019-11-24  
   planetary ephem.      DE431  
   SB-pert. ephem.      SB431-N16  
   condition code      0  
   norm. resid. RMS      .63408  
   source      ORB  
   producer      Otto Matic  
   solution date      2019-Dec-14 19:31:41  

Additional Information
 Earth MOID = 1.75986 au 
 Jupiter MOID = 1.97232 au 
 T_jup = 3.229 
[ show covariance matrix ]

Ephemeris | Orbit Diagram | Orbital Elements | Mission Design | Physical Parameters | Discovery Circumstances | Close-Approach Data ]

Physical Parameter Table
Parameter Symbol Value Units Sigma Reference Notes
absolute magnitude H 15.5   n/a MPO455391  

324275 (2006 CH10)          Discovered 2006-Feb-04 by Young, J. W. at Wrightwood
Reference: 20120406/Numbers.arcLast Updated: 2012-04-09

[ show close-approach data ]
Alternate Designations
 2006 CH10 = 2003 SO11 = 2007 GJ75 
Ephemeris | Orbit Diagram | Orbital Elements | Mission Design | Physical Parameters | Discovery Circumstances | Close-Approach Data ]
ABOUT SSD CREDITS/AWARDS PRIVACY/COPYRIGHT GLOSSARY LINKS
FirstGov 2020-Jul-15 05:08 UT
(server date/time)  
NASA Home Page
Site Manager:   Ryan S. Park
Webmaster  Alan B. Chamberlin